{"data":{"norad_id":66239,"intl_designator":"2025-245F","name":"STARLINK-35554","alt_names":[],"object_type":"PAYLOAD","status":"ACTIVE","operator":null,"country":"US","launch_date":"2025-10-29","launch_site_code":"AFETR","launch_vehicle":null,"mission":null,"orbit_class":"UNKNOWN","rcs_meters":null,"size_class":null,"mass_kg":null,"dimensions":null,"purposes":["comms"],"wikipedia_slug":null,"has_3d_model":false,"image_url":null,"decayed_at":null,"tle_current":{"epoch":"2026-09-20T22:15:22.442976Z","epoch_age_seconds":59715,"freshness":"FRESH","line1":"1 66239U 25245F   26263.92734309  .00009084  00000+0  30403-3 0  9993","line2":"2 66239  53.1597  95.9485 0001192 100.3362 259.7774 15.31712334 51003","mean_motion":15.31712334,"eccentricity":0.0001192,"inclination_deg":53.1597,"raan_deg":95.9485,"arg_perigee_deg":100.3362,"mean_anomaly_deg":259.7774,"bstar":0.00030403,"rev_number":5100,"period_min":94.012430926864,"perigee_km":469.88684670494,"apogee_km":471.51961021541,"semimajor_km":6848.8402284602,"source":"CELESTRAK","updated_at":"2026-09-21T09:00:35.846517Z"}}}